| time (UTC) | temp F | wind direction | speed MPH | gust MPH | rain 1hr in | rain 24hr in | rain mn in | humidity % | barometer mb |
| 20260504223004 | 80 | 193 | 4.0 | 12.0 | 0.00 | 0.00 | 0.00 | 61 | 1005.0 |
| 20260504222004 | 81 | 192 | 6.0 | 13.0 | 0.00 | 0.00 | 0.00 | 59 | 1005.0 |
| 20260504221003 | 81 | 146 | 2.0 | 9.0 | 0.00 | 0.00 | 0.00 | 60 | 1005.0 |
| 20260504220004 | 81 | 161 | 4.0 | 14.0 | 0.00 | 0.00 | 0.00 | 59 | 1005.0 |
| 20260504215003 | 82 | 203 | 5.0 | 12.0 | 0.00 | 0.00 | 0.00 | 58 | 1005.0 |
| 20260504214003 | 82 | 200 | 3.0 | 12.0 | 0.00 | 0.00 | 0.00 | 58 | 1005.0 |
| 20260504213004 | 82 | 169 | 4.0 | 10.0 | 0.00 | 0.00 | 0.00 | 57 | 1005.2 |
| 20260504211003 | 83 | 192 | 7.0 | 12.0 | 0.00 | 0.00 | 0.00 | 55 | 1006.1 |
| 20260504210004 | 82 | 189 | 5.0 | 13.0 | 0.00 | 0.00 | 0.00 | 57 | 1006.1 |
| 20260504205003 | 83 | 159 | 6.0 | 12.0 | 0.00 | 0.00 | 0.00 | 56 | 1006.1 |
| 20260504204004 | 82 | 135 | 5.0 | 12.0 | 0.00 | 0.00 | 0.00 | 57 | 1006.1 |
| 20260504202004 | 82 | 170 | 6.0 | 12.0 | 0.00 | 0.00 | 0.00 | 56 | 1007.4 |
| 20260504200004 | 81 | 171 | 5.0 | 15.0 | 0.00 | 0.00 | 0.00 | 58 | 1007.4 |
| 20260504195003 | 81 | 128 | 4.0 | 12.0 | 0.00 | 0.00 | 0.00 | 58 | 1007.4 |
| 20260504194003 | 81 | 176 | 4.0 | 9.0 | 0.00 | 0.00 | 0.00 | 58 | 1008.5 |
| 20260504193004 | 81 | 174 | 3.0 | 12.0 | 0.00 | 0.00 | 0.00 | 57 | 1008.5 |
| 20260504192003 | 81 | 211 | 5.0 | 12.0 | 0.00 | 0.00 | 0.00 | 57 | 1008.5 |
| 20260504191003 | 80 | 151 | 5.0 | 12.0 | 0.00 | 0.00 | 0.00 | 58 | 1008.5 |
| 20260504185003 | 79 | 181 | 5.0 | 15.0 | 0.00 | 0.00 | 0.00 | 58 | 1008.5 |
| 20260504184003 | 79 | 181 | 7.0 | 15.0 | 0.00 | 0.00 | 0.00 | 57 | 1008.5 |
| 20260504183004 | 79 | 172 | 5.0 | 12.0 | 0.00 | 0.00 | 0.00 | 58 | 1008.5 |
| 20260504182004 | 79 | 196 | 5.0 | 13.0 | 0.00 | 0.00 | 0.00 | 57 | 1008.9 |
| 20260504181004 | 78 | 233 | 3.0 | 10.0 | 0.00 | 0.00 | 0.00 | 59 | 1008.9 |
| 20260504180003 | 78 | 170 | 7.0 | 20.0 | 0.00 | 0.00 | 0.00 | 58 | 1008.9 |
| 20260504175003 | 78 | 183 | 6.0 | 14.0 | 0.00 | 0.00 | 0.00 | 58 | 1008.9 |
| 20260504174003 | 77 | 195 | 6.0 | 15.0 | 0.00 | 0.00 | 0.00 | 58 | 1010.1 |
| 20260504173003 | 77 | 155 | 6.0 | 15.0 | 0.00 | 0.00 | 0.00 | 58 | 1010.1 |
| 20260504171003 | 77 | 147 | 6.0 | 12.0 | 0.00 | 0.00 | 0.00 | 58 | 1010.1 |
| 20260504151003 | 71 | 186 | 9.0 | 16.0 | 0.00 | 0.00 | 0.00 | 65 | 1010.9 |
| 20260504141003 | 67 | 159 | 5.0 | 12.0 | 0.00 | 0.00 | 0.00 | 72 | 1011.1 |
| 20260504082003 | 61 | 154 | 3.0 | 9.0 | 0.00 | 0.00 | 0.00 | 73 | 1011.9 |
| 20260504050003 | 64 | 123 | 1.0 | 5.0 | 0.00 | 0.00 | 0.00 | 65 | 1013.7 |
| 20260504045005 | 64 | 162 | 2.0 | 5.0 | 0.00 | 0.00 | 0.00 | 64 | 1013.7 |
| 20260504042004 | 65 | 149 | 2.0 | 6.0 | 0.00 | 0.00 | 0.00 | 60 | 1013.7 |
| 20260504041003 | 66 | 156 | 2.0 | 5.0 | 0.00 | 0.00 | 0.00 | 60 | 1013.7 |
| 20260504040004 | 66 | 158 | 2.0 | 5.0 | 0.00 | 0.00 | 0.00 | 59 | 1013.7 |
| 20260504035003 | 67 | 102 | 2.0 | 5.0 | 0.00 | 0.00 | 0.00 | 58 | 1013.7 |
| 20260504034003 | 67 | 155 | 2.0 | 6.0 | 0.00 | 0.00 | 0.00 | 58 | 1013.7 |
| 20260504033003 | 67 | 171 | 2.0 | 6.0 | 0.00 | 0.00 | 0.00 | 57 | 1013.7 |
| 20260504032003 | 67 | 145 | 2.0 | 6.0 | 0.00 | 0.00 | 0.00 | 57 | 1013.7 |
| 20260504031004 | 68 | 202 | 3.0 | 7.0 | 0.00 | 0.00 | 0.00 | 56 | 1013.7 |
| 20260504030004 | 68 | 157 | 1.0 | 6.0 | 0.00 | 0.00 | 0.00 | 56 | 1013.6 |
| 20260504025003 | 68 | 200 | 1.0 | 3.0 | 0.00 | 0.00 | 0.00 | 55 | 1013.6 |
| 20260504024003 | 69 | 183 | 2.0 | 7.0 | 0.00 | 0.00 | 0.00 | 54 | 1013.6 |
| 20260504022003 | 69 | 166 | 1.0 | 3.0 | 0.00 | 0.00 | 0.00 | 51 | 1013.1 |
| 20260504021003 | 70 | 152 | 1.0 | 5.0 | 0.00 | 0.00 | 0.00 | 49 | 1013.1 |
| 20260504020003 | 71 | 169 | 1.0 | 5.0 | 0.00 | 0.00 | 0.00 | 48 | 1013.1 |
| 20260504014004 | 72 | 171 | 2.0 | 6.0 | 0.00 | 0.00 | 0.00 | 45 | 1013.1 |
| 20260504012003 | 73 | 143 | 2.0 | 7.0 | 0.00 | 0.00 | 0.00 | 44 | 1013.1 |
| 20260504011003 | 74 | 110 | 1.0 | 7.0 | 0.00 | 0.00 | 0.00 | 43 | 1013.2 |
| 20260504010004 | 74 | 161 | 3.0 | 7.0 | 0.00 | 0.00 | 0.00 | 42 | 1013.1 |
| 20260504005004 | 75 | 162 | 2.0 | 6.0 | 0.00 | 0.00 | 0.00 | 41 | 1013.1 |
| 20260504003003 | 76 | 156 | 3.0 | 7.0 | 0.00 | 0.00 | 0.00 | 40 | 1013.3 |
| 20260504002003 | 76 | 138 | 3.0 | 8.0 | 0.00 | 0.00 | 0.00 | 39 | 1013.3 |
| 20260504001003 | 77 | 143 | 3.0 | 12.0 | 0.00 | 0.00 | 0.00 | 38 | 1013.3 |
| 20260504000003 | 77 | 166 | 3.0 | 7.0 | 0.00 | 0.00 | 0.00 | 37 | 1013.3 |
| 20260503235003 | 78 | 154 | 2.0 | 8.0 | 0.00 | 0.00 | 0.00 | 36 | 1013.3 |
| 20260503234004 | 79 | 146 | 3.0 | 10.0 | 0.00 | 0.00 | 0.00 | 35 | 1013.6 |
| 20260503233003 | 79 | 223 | 3.0 | 8.0 | 0.00 | 0.00 | 0.00 | 34 | 1013.6 |
| 20260503232003 | 80 | 172 | 3.0 | 8.0 | 0.00 | 0.00 | 0.00 | 35 | 1013.6 |
| 20260503231004 | 80 | 139 | 3.0 | 12.0 | 0.00 | 0.00 | 0.00 | 33 | 1014.0 |
| 20260503230004 | 81 | 171 | 3.0 | 8.0 | 0.00 | 0.00 | 0.00 | 34 | 1014.0 |
| 20260503225003 | 80 | 200 | 4.0 | 9.0 | 0.00 | 0.00 | 0.00 | 33 | 1014.0 |